STARLINK-1372, 45543

Orbit data source: Space-Track

STARLINK-1372, 45543 is a payload satellite owned by SpaceX/Seattle (US) in LEO that was launched on Wed, 22 Apr 2020 UTC via an FALCON 9 launch vehicle from the Air Force Eastern Test Range (AFETR). Payload-class satellites include a variety of spacecraft equipped with specific instruments for various scientific and technological missions. These include communications satellites like Starlink; space stations such as the ISS; scientific satellites like the Hubble; Earth observation satellites from companies like Planet Labs, Umbra, and HawkEye 360; GPS; miniature CubeSats for education and research; and military/defense satellites.

Loading next visibility...
Identifier
45543, 2020-025N
Orbit
LEO
Country
Flag of USUS
Related business
Manufacturer
SpaceX/Seattle
Mission
Partially operational Commercial Communications
Bus & Motor
STARLINK, Unknown motor
Mass
260 kg wet, ~248 kg dry
Launch date (UTC)
2020-04-22 (6 years ago)
Launch vehicle
FALCON 9
Launch site
Air Force Eastern Test Range (AFETR)
Object type
Payload
Rocket body
Debris
Shape & HBR
Box + 1 Pan, 10.1 m
Radar Cross Section
13.562 m², Large (>1 m²)

Expand to show TLE details & history
Last TLE update: 9 hours ago

TLE from 9 hours ago
0 STARLINK-1372
1 45543U 20025N   26255.13776184  .00021255  00000-0  42899-3 0  9997
2 45543  53.1528 304.5224 0003268  45.7404 314.3872 15.46491426352965
Epoch: 2026-09-12T03:18Z
TLE epoch observation values (Epoch: 2026-09-12T03:18:22.622Z)
Latitude
-0.00001°
Longitude
-96.22294°
Altitude
426.349 km
Speed
7.658 km/s
True Right ascension
20h 18m 05s
True Declination
0° 00' 00"
Sunlit
Object was in full shadow at epoch
Visualization orbit readout
Latitude
Unknown
Longitude
Unknown
Altitude
Unknown
Speed
Unknown
Apparent Right ascension
Unknown
Apparent Declination
Unknown
Sunlit
N/A
Visualization observer readout
Local Sidereal Time
04:30:04
Azimuth
Unknown
Elevation
Unknown
Doppler factor
Unknown
Orbital elements
Apogee altitude
429.483 km
Perigee altitude
425.035 km
Semi-major axis
6,805.396 km
Eccentricity
0.00033
Inclination
53.1528°
RAAN
304.5224°
Arg. of periapsis
45.7404°
True anomaly
314.36043°
Mean anomaly
314.3872°
Eccentric anomaly
314.37382°
Mean motion
3.86601 °/min
Orbital period
93.12 mins
BSTAR
0.00042899
Loading maneuver chart data...
Computing Atmospheric mass density...

Documentation

Showing up to 5 results
|